Location: Curicchi
(45.0167°N, 12.0500°E)
Time: 01:20:46
(UTC+00:00)

Cosmos 2151 - Pass Details

Date: 07 June 2020
Orbit: 581 x 601 km, 82.5° (Epoch: 05 July)

Event Time Altitude Azimuth Distance (km) Brightness Sun altitude
Exits shadow 01:40:31 11° 166° (SSE) 1,864 5.1 -14.1°
Maximum altitude 01:44:27 48° 94° (E) 793 3.8 -13.7°
Drops below altitude 10° 01:48:36 10° 20° (NNE) 1,953 6.9 -13.2°
Sets 01:50:52 0° 15° (NNE) 2,862 7.8 -13.0°
